Dover AFB, DE

7:40 PM EDT on July 25, 2017 (GMT -0400)
Dover Air Force Base

Weather History for KDOV - August, 2014

Change the Weather History Date:

Monday, August 18, 2014

  Actual Average Record
Temperature  
Mean Temperature 70 °F -  
Max Temperature 79 °F 85 °F 95 °F (1987)
Min Temperature 60 °F 66 °F 54 °F (1954)
Cooling Degree Days 4    
Growing Degree Days 20 (Base 50)    
Moisture  
Dew Point 62 °F    
Average Humidity 74    
Maximum Humidity 100    
Minimum Humidity 54    
Precipitation  
Precipitation 0.00 in - - ()
Sea Level Pressure  
Sea Level Pressure 29.89 in    
Wind  
Wind Speed 4 mph (ENE)    
Max Wind Speed 8 mph    
Max Gust Speed -    
Visibility 10 miles    
Events Rain    
Averages and records for this station are not official NWS values.
T = Trace of Precipitation, MM = Missing Value Source: NWS Daily Summary

Daily Weather History Graph

Daily Weather History Graph

Search for Another Location

Airport or City:

Trip Planner

Search our weather history database for the weather conditions in past years. The results will help you decide how hot, cold, wet, or windy it might be!

Date:

Astronomy

Aug. 18, 2014 Rise Set
Actual Time 6:17 AM EDT 7:52 PM EDT
Civil Twilight 5:49 AM EDT 8:21 PM EDT
Nautical Twilight 5:15 AM EDT 8:55 PM EDT
Astronomical Twilight 4:38 AM EDT 9:31 PM EDT
Moon 12:23 AM EDT (8/18) 2:53 PM EDT (8/18)
Length of Visible Light 14h 31m
Length of Day
13h 35m
Last Quarter, 38% of the Moon is Illuminated
Aug 18
Last Quarter
Aug 25
New
Sep 2
First Quarter
Sep 8
Full
Sep 15
Last Quarter

Hourly Weather History & Observations

Time (EDT) Temp. Dew Point Humidity Pressure Visibility Wind Dir Wind Speed Gust Speed Precip Events Conditions
12:58 AM 69.4 °F 62.8 °F 79% 29.91 in 10.0 mi NNW 3.5 mph - N/A   Partly Cloudy
1:58 AM 65.3 °F 62.4 °F 90% 29.91 in 10.0 mi NNW 3.5 mph - N/A   Scattered Clouds
2:53 AM 64.4 °F 62.6 °F 94% 29.89 in 8.0 mi NW 1.2 mph - N/A   Partly Cloudy
2:58 AM 63.7 °F 62.6 °F 96% 29.90 in 8.0 mi NW 1.2 mph - N/A   Scattered Clouds
3:03 AM 64.4 °F 62.6 °F 94% 29.89 in 10.0 mi NW 1.2 mph - N/A   Scattered Clouds
3:58 AM 66.2 °F 61.7 °F 85% 29.90 in 10.0 mi Calm Calm - N/A   Mostly Cloudy
4:58 AM 60.6 °F 59.5 °F 96% 29.90 in 10.0 mi North 3.5 mph - N/A   Clear
5:58 AM 60.3 °F 60.3 °F 100% 29.91 in 10.0 mi NNW 3.5 mph - N/A   Scattered Clouds
6:58 AM 60.8 °F 60.8 °F 100% 29.93 in 10.0 mi North 4.6 mph - N/A   Clear
7:58 AM 65.8 °F 65.8 °F 100% 29.93 in 10.0 mi North 3.5 mph - N/A   Clear
8:58 AM 71.4 °F 62.8 °F 74% 29.94 in 10.0 mi Variable 2.3 mph - N/A   Clear
9:58 AM 74.3 °F 61.5 °F 64% 29.94 in 10.0 mi NNE 5.8 mph - N/A   Clear
10:58 AM 75.4 °F 60.1 °F 59% 29.94 in 10.0 mi NE 8.1 mph - N/A   Scattered Clouds
11:58 AM 76.3 °F 59.2 °F 55% 29.93 in 10.0 mi NNE 5.8 mph - N/A   Scattered Clouds
12:58 PM 76.5 °F 60.1 °F 57% 29.91 in 10.0 mi ESE 5.8 mph - N/A   Partly Cloudy
1:31 PM 77.0 °F 59.0 °F 54% 29.89 in 10.0 mi Variable 4.6 mph - N/A Rain Light Rain
1:34 PM 77.0 °F 59.0 °F 54% 29.89 in 10.0 mi ESE 5.8 mph - N/A   Scattered Clouds
1:58 PM 78.4 °F 60.8 °F 55% 29.89 in 10.0 mi Variable 4.6 mph - 0.00 in   Scattered Clouds
2:18 PM 78.8 °F 60.8 °F 54% 29.88 in 10.0 mi Variable 1.2 mph - N/A Rain Light Rain
2:28 PM 78.8 °F 60.8 °F 54% 29.88 in 10.0 mi Variable 2.3 mph - N/A   Partly Cloudy
2:58 PM 79.2 °F 62.6 °F 57% 29.88 in 10.0 mi South 6.9 mph - 0.00 in   Partly Cloudy
3:58 PM 79.5 °F 62.2 °F 55% 29.86 in 10.0 mi East 8.1 mph - N/A   Clear
4:58 PM 78.8 °F 60.8 °F 54% 29.85 in 10.0 mi ESE 5.8 mph - N/A   Clear
5:58 PM 76.1 °F 63.3 °F 64% 29.84 in 10.0 mi ESE 5.8 mph - N/A   Partly Cloudy
6:58 PM 73.8 °F 62.1 °F 67% 29.84 in 10.0 mi SE 5.8 mph - N/A   Clear
7:58 PM 72.7 °F 64.4 °F 75% 29.85 in 10.0 mi ESE 4.6 mph - N/A   Clear
8:58 PM 71.2 °F 64.6 °F 79% 29.86 in 10.0 mi SSE 8.1 mph - N/A   Mostly Cloudy
9:58 PM 70.2 °F 65.5 °F 85% 29.87 in 10.0 mi SSE 4.6 mph - N/A   Mostly Cloudy
10:58 PM 70.5 °F 64.9 °F 82% 29.85 in 10.0 mi SE 5.8 mph - N/A   Overcast
11:58 PM 69.4 °F 64.9 °F 86% 29.85 in 10.0 mi SSE 5.8 mph - N/A   Overcast